Wind_Speed
11 11 11 11 11 11 12 12 13 14 16 17 18 20 21 22 22 23 23 24 25 25 26 27 27 27 27 27 27 27 28 28 29 31 32 33 34 35 36 37 39 40 42
13 13 13 13 13 14 14 15 16 17 18 20 21 22 23 24 24 25 26 26 27 27 28 28 28 28 29 29 29 29 30 30 29 30 33 34 35 35 36 38 39 41 43
15 15 16 16 16 16 17 18 19 19 20 22 23 24 25 26 27 27 28 28 29 29 30 30 30 30 30 31 31 31 31 31 31 31 32 34 35 37 37 38 39 41 43
17 17 18 19 19 19 20 21 22 22 23 24 26 26 27 28 29 30 30 30 31 31 31 31 31 32 32 33 33 33 33 33 33 32 32 33 35 36 37 38 38 40 41
19 19 20 20 20 21 22 23 24 25 26 27 28 28 29 30 31 32 32 32 33 33 33 33 34 34 34 34 34 34 34 34 34 33 33 33 34 36 37 37 38 39 40
20 21 21 22 22 23 24 25 27 28 29 29 30 31 32 32 33 33 33 34 34 34 34 35 35 36 36 35 35 35 35 35 35 35 34 34 34 36 36 37 37 38 39
21 22 23 24 24 25 26 28 29 30 31 32 33 33 34 34 34 34 34 35 35 36 36 36 37 37 37 37 37 37 36 36 35 35 34 34 35 35 36 36 37 37 38
23 24 25 26 27 28 29 30 31 33 33 34 35 36 36 36 36 36 37 37 37 38 38 38 38 39 39 39 38 37 37 37 37 36 35 34 35 35 35 36 36 36 37
25 26 27 28 29 30 31 33 34 35 36 36 37 38 38 38 39 39 39 39 39 40 40 40 40 40 40 40 39 38 38 38 37 36 35 35 35 35 35 35 35 36 36
27 28 29 30 31 32 34 35 37 38 38 39 39 40 40 40 41 41 41 41 41 41 42 42 42 41 41 41 40 39 38 38 37 37 36 35 35 35 36 36 36 36 35
29 30 31 32 34 35 37 38 39 40 41 41 41 42 42 42 42 43 43 43 44 43 43 44 44 43 42 42 41 40 39 38 38 37 36 36 36 36 35 35 35 35 35
31 32 34 35 37 38 39 41 42 42 43 43 44 44 44 45 45 45 45 45 45 46 45 45 45 45 44 43 42 41 40 39 38 37 37 36 36 35 35 34 34 35 35
34 34 36 38 39 40 41 43 44 45 45 46 46 47 47 47 47 47 47 48 48 48 47 47 47 46 45 44 43 42 41 40 39 38 37 37 36 35 35 35 35 34 34
36 37 39 40 41 43 44 45 46 47 48 49 49 50 50 49 49 49 50 50 50 50 49 49 48 47 46 45 43 42 42 40 39 38 37 36 36 35 35 34 34 34 33
39 40 41 43 44 45 47 48 49 50 51 52 52 53 51 50 50 51 52 52 53 52 51 50 50 48 47 45 44 43 42 41 40 39 37 36 35 35 35 34 33 33 33
41 42 44 45 46 48 49 50 51 52 53 54 54 54 54 54 53 54 54 54 54 53 52 51 50 48 47 45 44 43 42 41 40 38 37 36 35 35 34 33 32 32 32
43 45 46 48 49 50 51 52 53 54 55 55 56 57 57 57 57 56 56 55 54 53 52 51 49 47 45 44 43 43 41 40 39 38 36 35 35 34 33 33 33 32 32
46 47 48 50 51 52 53 54 55 56 56 56 57 58 59 59 59 58 57 56 55 54 52 50 48 46 45 44 43 41 40 38 37 36 36 35 34 33 33 33 33 32 32
47 49 50 51 52 53 54 55 57 58 59 59 59 60 60 60 60 59 58 56 54 53 51 48 46 45 43 42 41 39 38 37 36 35 35 34 34 33 32 32 31 32 32
49 50 51 52 53 55 56 58 59 60 61 61 61 61 61 60 59 57 56 54 52 50 48 47 44 43 41 40 38 37 36 35 35 34 34 33 33 32 31 31 31 31 31
51 52 53 55 56 57 59 59 60 61 61 61 61 60 60 58 56 54 52 50 48 46 44 42 40 39 38 36 35 34 33 33 33 32 32 31 31 30 30 31 31 31 30
53 54 55 56 57 58 59 59 59 59 59 58 57 56 55 53 51 49 47 44 42 40 39 37 36 35 34 32 31 31 31 31 31 31 30 30 29 29 30 30 29 29 28
55 55 56 56 57 57 56 56 55 54 54 53 51 49 47 46 44 42 39 37 36 35 35 33 32 31 30 29 28 28 28 29 29 29 28 28 28 28 28 28 28 27 27
54 54 54 54 54 53 53 52 51 51 50 49 47 44 42 41 38 36 34 33 33 32 31 30 28 27 27 26 26 26 26 26 27 27 27 27 27 27 27 26 26 26 26
52 52 51 51 50 50 49 49 48 46 45 43 41 39 37 35 33 31 30 28 27 26 26 25 25 24 22 22 22 23 23 24 24 25 25 25 25 25 25 25 25 25 24
49 49 49 48 47 46 45 44 42 41 39 37 34 32 30 29 27 25 23 22 22 22 21 22 22 21 20 19 20 21 22 23 23 23 23 23 23 23 23 23 23 23 23
Wind_Direction
244 250 255 263 272 280 287 292 296 300 303 305 307 309 311 313 314 314 314 314 315 316 316 315 313 311 308 305 302 298 296 292 287 284 281 279 275 270 266 262 258 255 253
251 255 261 266 272 278 284 289 293 297 301 302 304 306 308 310 310 312 312 312 312 313 314 314 313 311 309 307 304 301 299 295 290 286 283 280 277 274 270 265 261 257 254
255 260 265 269 272 277 283 288 291 295 299 300 302 304 306 306 308 309 310 310 311 311 312 312 312 311 309 308 305 303 301 298 293 289 285 282 279 276 272 269 264 260 256
260 263 267 271 274 279 283 288 291 295 298 299 301 303 305 306 307 307 308 308 309 309 309 310 311 311 310 309 307 304 302 300 296 292 288 284 281 278 274 271 267 263 259
263 266 269 273 277 280 284 288 291 294 296 298 300 302 303 304 305 306 306 307 308 308 308 308 309 309 308 308 306 304 302 301 298 295 291 286 282 279 277 273 269 265 262
266 269 272 276 279 282 285 289 291 294 296 298 299 301 302 303 304 304 305 306 306 307 307 308 308 308 307 307 306 303 301 300 298 296 293 288 283 280 278 276 272 267 264
270 273 276 279 282 285 287 290 292 293 295 297 298 300 301 302 303 303 304 304 305 305 306 307 307 307 307 306 305 303 301 299 297 296 293 289 285 281 279 277 274 270 265
274 277 279 282 284 287 288 290 291 293 294 295 297 298 300 301 302 302 303 303 303 304 305 306 306 306 306 305 304 302 301 300 297 295 293 289 286 283 281 278 275 272 267
276 278 281 283 285 287 288 290 291 292 294 295 297 298 299 299 300 301 302 301 303 303 304 305 306 306 306 304 303 301 300 299 298 296 293 290 286 283 281 279 276 273 269
277 279 281 283 285 286 288 289 291 292 293 295 296 297 297 298 299 299 300 300 301 302 302 304 304 305 304 302 302 301 299 298 297 296 294 291 286 283 281 279 277 273 269
278 281 283 284 285 286 287 289 290 291 292 294 295 295 296 297 297 298 298 298 299 300 301 302 302 303 303 301 300 299 297 296 295 294 293 291 288 284 281 280 277 274 270
280 281 282 283 285 286 287 289 290 291 292 293 294 294 295 296 296 297 297 297 297 299 299 299 300 301 301 299 298 297 295 295 294 293 291 290 288 285 282 280 279 275 271
280 282 283 284 286 287 288 289 290 291 291 292 292 293 294 294 295 295 295 295 296 297 297 297 298 298 298 297 296 294 293 293 293 292 290 288 286 284 282 280 278 276 272
280 282 284 285 285 286 287 288 289 290 291 292 292 292 292 293 293 292 292 294 294 295 295 295 295 296 295 295 294 292 292 291 291 290 289 287 285 283 282 280 278 276 272
284 285 286 286 287 288 289 289 290 290 291 291 291 291 291 292 292 291 291 292 292 292 293 294 294 294 293 292 291 290 290 289 289 288 287 285 283 282 281 279 278 276 273
285 286 286 287 287 288 288 289 289 290 290 290 290 290 290 291 291 290 290 290 290 291 291 292 292 291 290 290 289 288 288 287 287 287 286 284 282 281 279 278 277 276 274
286 286 287 288 288 288 288 288 288 288 289 290 290 290 290 290 290 290 290 289 290 290 290 290 289 288 288 287 286 286 286 286 285 285 284 282 282 280 278 276 276 276 275
287 288 288 289 289 288 289 289 288 288 288 288 288 288 288 289 289 289 289 289 289 288 288 288 287 286 285 285 284 283 283 283 282 282 281 281 281 279 277 276 275 274 274
289 289 289 289 289 289 289 289 289 289 288 288 288 287 287 288 288 288 288 288 287 287 286 286 285 284 283 283 282 281 281 280 281 280 280 280 279 278 277 276 275 274 273
290 290 290 290 290 290 290 290 289 289 289 289 289 288 288 288 287 287 287 286 285 285 284 283 282 281 281 281 280 278 278 278 278 279 280 280 279 278 276 275 275 275 273
292 292 292 292 292 291 291 291 290 290 290 290 290 289 289 288 287 286 285 284 283 283 282 280 279 279 278 278 277 276 275 277 278 278 280 280 278 277 276 275 274 274 272
293 293 293 293 293 292 292 292 292 292 292 291 291 290 289 288 287 286 284 283 282 281 280 279 278 277 276 274 273 274 275 277 279 280 279 279 278 276 276 275 274 272 271
294 294 294 294 294 294 294 294 294 294 294 293 292 291 290 289 288 286 284 282 280 279 277 276 275 274 273 271 271 272 275 277 279 280 280 278 277 277 276 275 273 271 271
295 295 295 295 296 296 296 295 295 295 295 294 293 291 290 290 288 285 282 280 278 277 275 272 271 272 270 269 271 274 276 278 279 280 279 279 278 277 275 274 272 271 271
296 296 297 297 297 297 297 297 296 296 296 295 293 291 290 289 286 283 281 279 277 275 272 269 268 268 266 268 272 275 278 280 281 281 280 280 279 277 274 272 272 271 271
298 299 299 299 299 299 299 299 299 298 297 296 295 292 291 288 285 282 280 278 275 272 269 268 268 267 267 269 273 277 280 282 283 283 282 281 279 277 275 273 273 272 271
Height
5845 5846 5846 5846 5846 5845 5845 5844 5843 5842 5840 5839 5837 5835 5833 5831 5828 5826 5823 5820 5818 5815 5812 5809 5806 5803 5800 5798 5796 5794 5792 5790 5788 5785 5783 5783 5782 5783 5783 5784 5785 5787 5788
5842 5842 5842 5842 5842 5841 5840 5839 5838 5837 5835 5834 5832 5830 5828 5825 5823 5820 5817 5814 5812 5809 5806 5802 5799 5796 5793 5790 5788 5785 5783 5781 5779 5777 5774 5773 5772 5771 5772 5772 5773 5774 5776
5838 5838 5838 5837 5837 5836 5835 5834 5833 5831 5830 5828 5826 5824 5822 5819 5817 5814 5811 5808 5805 5802 5799 5796 5792 5789 5786 5782 5779 5776 5774 5771 5769 5768 5765 5763 5761 5760 5760 5760 5761 5762 5763
5833 5833 5833 5832 5831 5830 5829 5828 5827 5825 5824 5822 5820 5818 5816 5813 5810 5807 5804 5801 5798 5795 5791 5788 5785 5781 5778 5774 5771 5767 5764 5762 5759 5757 5755 5753 5751 5749 5749 5749 5749 5749 5751
5828 5828 5827 5827 5826 5825 5823 5822 5821 5819 5818 5816 5814 5811 5809 5806 5803 5800 5797 5793 5790 5787 5783 5780 5777 5773 5769 5766 5762 5758 5755 5752 5749 5747 5745 5743 5740 5738 5737 5737 5738 5737 5738
5822 5822 5821 5821 5819 5818 5817 5815 5814 5812 5811 5809 5807 5804 5801 5798 5795 5792 5788 5785 5782 5778 5775 5772 5768 5764 5760 5757 5753 5749 5746 5742 5739 5736 5734 5732 5730 5728 5726 5726 5726 5726 5727
5816 5816 5815 5814 5813 5811 5810 5808 5807 5805 5803 5801 5799 5796 5793 5790 5787 5783 5780 5776 5773 5770 5766 5763 5759 5755 5751 5747 5743 5740 5736 5732 5730 5727 5724 5721 5719 5717 5716 5715 5714 5714 5715
5809 5809 5808 5806 5805 5804 5802 5801 5799 5797 5795 5792 5790 5787 5784 5781 5777 5774 5771 5767 5764 5760 5757 5753 5749 5745 5741 5737 5733 5729 5725 5722 5719 5716 5714 5711 5708 5706 5704 5704 5703 5702 5703
5802 5801 5800 5799 5797 5796 5794 5792 5790 5788 5786 5783 5780 5778 5775 5771 5768 5765 5761 5757 5754 5750 5746 5742 5739 5735 5730 5726 5723 5719 5715 5711 5708 5705 5702 5700 5697 5695 5693 5692 5691 5691 5691
5794 5793 5792 5791 5789 5787 5785 5783 5781 5778 5776 5773 5771 5768 5765 5761 5758 5754 5750 5747 5743 5740 5736 5732 5728 5724 5720 5715 5711 5708 5705 5701 5697 5694 5691 5688 5686 5684 5682 5681 5680 5679 5679
5786 5785 5784 5782 5780 5778 5776 5774 5771 5768 5766 5763 5760 5757 5754 5751 5747 5743 5739 5735 5732 5728 5724 5720 5716 5712 5708 5704 5700 5697 5693 5690 5687 5683 5680 5677 5675 5672 5671 5669 5668 5667 5667
5778 5777 5775 5773 5771 5768 5766 5763 5760 5758 5755 5752 5749 5746 5742 5739 5735 5731 5727 5723 5719 5716 5712 5708 5704 5700 5696 5692 5688 5685 5682 5678 5676 5672 5669 5667 5664 5661 5660 5658 5657 5656 5656
5769 5767 5765 5763 5760 5758 5755 5752 5749 5746 5743 5740 5737 5734 5730 5726 5722 5718 5714 5710 5706 5702 5699 5696 5691 5687 5683 5680 5676 5673 5670 5666 5664 5661 5658 5655 5653 5650 5648 5647 5645 5644 5644
5759 5757 5754 5752 5749 5746 5743 5740 5737 5733 5730 5726 5723 5720 5717 5713 5709 5705 5700 5696 5692 5688 5685 5682 5678 5674 5670 5667 5664 5660 5657 5654 5652 5650 5647 5644 5642 5639 5638 5636 5634 5633 5633
5747 5745 5743 5740 5737 5734 5731 5727 5724 5720 5716 5713 5709 5705 5702 5699 5695 5690 5686 5682 5678 5674 5670 5667 5663 5660 5657 5654 5651 5648 5645 5642 5640 5637 5635 5633 5630 5628 5627 5625 5624 5623 5622
5736 5733 5731 5727 5724 5721 5718 5714 5710 5706 5702 5697 5693 5689 5686 5682 5679 5674 5670 5666 5662 5658 5655 5652 5649 5645 5642 5640 5637 5634 5632 5629 5627 5625 5623 5621 5619 5617 5616 5614 5613 5612 5611
5724 5721 5718 5714 5711 5707 5703 5699 5696 5692 5686 5681 5677 5672 5668 5665 5661 5657 5653 5650 5646 5643 5639 5637 5633 5631 5628 5625 5623 5621 5619 5617 5615 5613 5611 5609 5608 5606 5605 5603 5602 5601 5600
5711 5707 5704 5700 5696 5692 5687 5683 5679 5675 5671 5667 5661 5656 5651 5647 5644 5640 5636 5633 5630 5626 5623 5621 5618 5616 5613 5611 5609 5608 5606 5604 5602 5601 5599 5597 5596 5595 5593 5592 5591 5590 5590
5697 5694 5689 5685 5680 5676 5671 5667 5662 5657 5653 5649 5644 5639 5634 5630 5626 5622 5618 5615 5613 5610 5607 5605 5603 5601 5599 5597 5596 5594 5593 5592 5590 5589 5587 5586 5584 5583 5582 5581 5580 5580 5579
5683 5678 5674 5669 5665 5660 5654 5649 5644 5639 5634 5629 5625 5620 5615 5611 5608 5604 5600 5597 5595 5593 5591 5589 5587 5586 5585 5584 5583 5582 5581 5580 5579 5577 5576 5574 5573 5572 5571 5570 5570 5569 5568
5667 5662 5657 5652 5647 5642 5636 5631 5625 5620 5615 5610 5606 5600 5595 5591 5588 5586 5583 5580 5578 5577 5575 5574 5573 5572 5571 5571 5570 5570 5569 5568 5567 5566 5565 5564 5562 5561 5560 5560 5559 5559 5558
5651 5646 5641 5635 5630 5624 5618 5612 5607 5601 5596 5591 5587 5582 5577 5573 5570 5568 5565 5564 5562 5561 5560 5560 5559 5559 5559 5559 5559 5559 5559 5558 5557 5556 5555 5553 5552 5551 5550 5550 5549 5548 5548
5634 5629 5623 5618 5612 5606 5600 5594 5589 5583 5578 5573 5568 5565 5561 5557 5554 5552 5550 5549 5549 5548 5548 5548 5548 5548 5548 5549 5549 5549 5549 5548 5547 5546 5545 5544 5543 5542 5541 5540 5539 5539 5539
5617 5612 5606 5601 5595 5589 5583 5578 5572 5567 5562 5557 5553 5549 5546 5543 5541 5539 5537 5537 5536 5536 5536 5537 5538 5538 5539 5539 5540 5540 5540 5539 5538 5537 5536 5535 5534 5532 5531 5531 5530 5530 5530
5600 5595 5590 5584 5579 5573 5568 5562 5557 5552 5547 5543 5539 5535 5532 5530 5528 5527 5526 5525 5526 5526 5526 5527 5529 5529 5530 5531 5532 5532 5531 5531 5530 5528 5527 5526 5525 5524 5523 5522 5522 5521 5521
5585 5579 5574 5569 5564 5558 5553 5548 5543 5539 5534 5530 5526 5524 5521 5520 5518 5517 5517 5517 5517 5518 5519 5520 5521 5522 5523 5523 5524 5524 5524 5523 5522 5520 5519 5518 5517 5516 5515 5514 5514 5513 5513